TimePDT,TemperatureF,Dew PointF,Humidity,Sea Level PressureIn,VisibilityMPH,Wind Direction,Wind SpeedMPH,Gust SpeedMPH,PrecipitationIn,Events,Conditions,WindDirDegrees,DateUTC
12:53 AM,32.0,24.1,73,30.27,10.0,ESE,3.5,-,N/A,,Clear,110,2012-10-04 07:53:00
1:53 AM,30.0,21.9,72,30.28,10.0,Calm,Calm,-,N/A,,Clear,0,2012-10-04 08:53:00
2:53 AM,30.9,24.1,76,30.27,10.0,SE,3.5,-,N/A,,Clear,140,2012-10-04 09:53:00
3:53 AM,30.0,23.0,75,30.27,10.0,ESE,3.5,-,N/A,,Clear,120,2012-10-04 10:53:00
4:53 AM,30.9,23.0,72,30.27,10.0,SE,3.5,-,N/A,,Clear,130,2012-10-04 11:53:00
5:53 AM,27.0,21.9,81,30.28,10.0,SSE,3.5,-,N/A,,Clear,150,2012-10-04 12:53:00
6:53 AM,30.0,23.0,75,30.30,10.0,SSE,3.5,-,N/A,,Clear,160,2012-10-04 13:53:00
7:53 AM,32.0,24.1,73,30.31,10.0,South,5.8,-,N/A,,Clear,170,2012-10-04 14:53:00
8:53 AM,41.0,25.0,53,30.33,10.0,SSE,4.6,-,N/A,,Clear,150,2012-10-04 15:53:00
9:53 AM,48.9,28.0,44,30.33,10.0,Calm,Calm,-,N/A,,Clear,0,2012-10-04 16:53:00
10:53 AM,52.0,30.0,43,30.32,10.0,Calm,Calm,-,N/A,,Clear,0,2012-10-04 17:53:00
11:53 AM,54.0,30.9,41,30.32,10.0,Calm,Calm,-,N/A,,Clear,0,2012-10-04 18:53:00
12:53 PM,59.0,32.0,36,30.31,10.0,Calm,Calm,-,N/A,,Clear,0,2012-10-04 19:53:00
1:53 PM,61.0,30.9,32,30.29,10.0,Variable,3.5,-,N/A,,Clear,0,2012-10-04 20:53:00
2:53 PM,62.1,30.0,30,30.27,10.0,ENE,4.6,-,N/A,,Clear,70,2012-10-04 21:53:00
3:53 PM,64.9,27.0,24,30.26,10.0,NE,5.8,-,N/A,,Clear,40,2012-10-04 22:53:00
4:53 PM,64.9,26.1,23,30.26,10.0,NE,5.8,-,N/A,,Clear,40,2012-10-04 23:53:00
5:53 PM,63.0,25.0,24,30.25,10.0,NNE,4.6,-,N/A,,Clear,20,2012-10-05 00:53:00
6:53 PM,51.1,24.1,35,30.26,10.0,NE,3.5,-,N/A,,Clear,40,2012-10-05 01:53:00
7:53 PM,44.1,27.0,51,30.27,9.0,Calm,Calm,-,N/A,,Clear,0,2012-10-05 02:53:00
8:53 PM,45.0,26.1,48,30.27,10.0,South,3.5,-,N/A,,Clear,170,2012-10-05 03:53:00
9:53 PM,39.9,28.0,63,30.27,8.0,SE,4.6,-,N/A,,Clear,140,2012-10-05 04:53:00
10:53 PM,36.0,24.1,62,30.27,8.0,South,5.8,-,N/A,,Clear,170,2012-10-05 05:53:00
11:53 PM,35.1,23.0,61,30.27,10.0,ESE,5.8,-,N/A,,Clear,120,2012-10-05 06:53:00